[[{"header":{"parameterUnit":"m.s-1","parameterCategory":1,"la1":30.2991,"la2":30.254,"lo1":-89.0895,"lo2":-89.0444,"dy":0.0017,"dx":0.0017,"nx":28,"ny":28,"refTime":"2024-02-16T03:00:00:Z","depth":0,"parameterNumber":2,"parameterNumberName":"U-component_of_WINDS"},"data":[0,0,0,0,0,0,0,0,0,0,0,0,0,0,0,0,0,0,0,0,0,0,0,0,0,0,0,0,0,0,0,0,0,0,0,0,0,0,0,0,0,0,0,0,0,0,0,0,0,0,0,0,0,0,0,0,0,0,1.4118,1.4118,0,1.4205,1.4206,1.4207,1.4286,1.4287,1.4288,1.4289,1.437,1.4371,1.4372,0,0,0,0,0,0,0,0,0,0,0,0,0,1.4013,1.4015,1.4117,1.4119,1.412,1.4204,1.4206,1.4207,1.4286,1.4287,1.4289,1.429,1.4369,1.4371,1.4372,0,0,0,0,0,0,0,0,0,0,0,0,0,1.4075,1.4015,1.4117,1.417,1.4175,1.4204,1.4206,1.4207,1.4286,1.4287,1.4289,1.429,1.4369,1.4371,1.4372,1.4354,0,0,1.4378,1.4379,0,0,0,0,0,0,0,0,1.4071,1.4079,1.4161,1.4166,1.4172,1.4236,1.4199,1.4256,1.4285,1.4244,1.4289,1.4291,1.4324,1.4329,1.4342,1.4358,1.4361,1.4378,1.4379,1.438,1.4381,0,0,0,0,0,0,0,1.4067,1.4075,1.4152,1.4162,1.4169,1.4187,1.4197,1.421,1.4274,1.4247,1.4253,1.4263,1.4327,1.434,1.4344,1.4362,1.4378,1.438,1.4381,1.4382,1.4368,1.4367,0,0,0,0,0,0,1.4056,1.4071,1.4149,1.4154,1.4125,1.4187,1.4199,1.4214,1.4274,1.4285,1.4262,1.4266,1.4336,1.4342,1.4348,1.433,1.438,1.4382,1.4383,1.437,1.4368,1.4366,0,0,0,0,0,0,1.4053,1.4062,1.4145,1.4115,1.4127,1.4188,1.4204,1.4215,1.4228,1.4285,1.4296,1.4264,1.4338,1.4345,1.4353,1.4334,1.4383,1.4384,1.4371,1.4369,1.4367,1.4294,0,0,0,0,0,0,1.405,1.406,1.4055,1.4114,1.4128,1.415,1.4203,1.4216,1.4232,1.4239,1.429,1.4299,1.4339,1.4349,1.4354,1.4337,1.4386,1.4373,1.437,1.4368,1.4298,1.429,1.4282,0,0,0,0,0,1.4046,1.4029,1.4055,1.4063,1.4123,1.4149,1.4157,1.4206,1.4231,1.4225,1.4262,1.4298,1.4336,1.435,1.4356,1.4339,1.4374,1.4371,1.4368,1.4302,1.4291,1.4282,0,0,0,0,0,0,1.3963,1.4038,1.4067,1.4069,1.4103,1.4163,1.4157,1.4193,1.4218,1.4223,1.428,1.429,1.4291,1.4316,1.433,1.4325,1.436,1.4358,1.4308,1.4298,1.429,1.4283,1.4387,0,0,0,0,0,1.3946,1.3963,1.4027,1.4022,1.4038,1.4095,1.4108,1.4143,1.4179,1.4192,1.423,1.4261,1.428,1.4291,1.4312,1.4304,1.4315,1.4295,1.4287,1.428,1.4276,1.4274,1.4265,1.4355,1.4355,1.4356,0,0,1.3908,1.3951,1.3958,1.4007,1.4037,1.4052,1.4106,1.4119,1.4129,1.4193,1.4203,1.4232,1.4271,1.427,1.4272,1.4291,1.4255,1.4276,1.427,1.427,1.427,1.4261,1.4253,1.4353,1.4354,1.4354,0,0,1.3848,1.3883,1.3884,1.3914,1.3961,1.3999,1.3999,1.4055,1.4077,1.4089,1.4138,1.4151,1.4183,1.4208,1.4225,1.4178,1.4212,1.4184,1.414,1.4137,1.4129,1.4123,1.4105,1.4098,1.418,1.418,1.418,0,1.3794,1.3821,1.3878,1.389,1.3909,1.3973,1.3972,1.3998,1.4047,1.4058,1.408,1.4123,1.4153,1.416,1.4149,1.4161,1.4161,1.4176,1.4127,1.4121,1.4116,1.4099,1.4092,1.4176,1.4177,1.4177,1.4178,0,1.3753,1.3771,1.3765,1.3816,1.3835,1.384,1.3897,1.3909,1.3943,1.3979,1.399,1.4029,1.4059,1.4064,1.4096,1.4076,1.4086,1.4116,1.4153,1.4103,1.4088,1.4082,1.4171,1.4172,1.4173,1.4174,0,0,1.3638,1.3724,1.372,1.3745,1.3802,1.3816,1.3824,1.3857,1.3866,1.3899,1.3905,1.3933,1.3962,1.3982,1.4018,1.4015,1.3974,1.4046,1.4048,1.403,1.3952,1.3927,1.3919,1.3999,1.3998,1.3997,1.3948,0,1.3585,1.3607,1.366,1.3664,1.368,1.3743,1.375,1.3784,1.3819,1.3836,1.3873,1.3891,1.3929,1.3941,1.3942,1.3979,1.3959,1.3984,1.4002,1.4002,1.3988,1.3911,1.3885,1.3837,1.3943,1.3942,1.3942,0,1.3526,1.3559,1.3565,1.3624,1.3633,1.3638,1.3674,1.3691,1.3731,1.3756,1.378,1.3821,1.3831,1.3868,1.3881,1.3897,1.3908,1.3928,1.3927,1.3928,1.3967,1.3908,1.3823,1.3814,1.3933,1.3934,1.3934,0,1.3439,1.3485,1.3495,1.3514,1.3584,1.3586,1.3614,1.3658,1.3674,1.3705,1.3716,1.3746,1.3761,1.3782,1.383,1.3852,1.3837,1.3878,1.3856,1.3855,1.3847,1.3846,1.376,1.3859,1.3859,1.3859,1.3859,0,1.3373,1.3374,1.3458,1.3463,1.3466,1.3528,1.3528,1.3562,1.36,1.3612,1.3667,1.3676,1.374,1.3756,1.3794,1.3799,1.3806,1.3824,1.3833,1.3818,1.3815,1.3823,1.3827,1.3857,1.3858,1.3858,1.3858,0,1.3276,1.3332,1.3347,1.3414,1.343,1.3429,1.3484,1.3491,1.3531,1.3545,1.3552,1.3612,1.3634,1.3685,1.3719,1.3745,1.3739,1.3758,1.3726,1.3731,1.3706,1.3707,1.362,1.3611,1.3717,1.3716,1.3715,0,1.3228,1.3231,1.3299,1.3313,1.3341,1.3361,1.338,1.3442,1.3459,1.3507,1.3507,1.3535,1.356,1.3592,1.3637,1.3664,1.3682,1.365,1.3686,1.367,1.3679,1.3677,1.3677,1.364,1.3639,1.3638,1.3637,0,1.3138,1.3167,1.3193,1.3231,1.3253,1.3284,1.3317,1.3325,1.3394,1.341,1.3435,1.3455,1.3493,1.3518,1.3553,1.3579,1.3618,1.3626,1.3622,1.3604,1.3585,1.3593,1.3701,1.3627,1.3628,1.3628,1.3629,1.3629,1.3062,1.3068,1.3118,1.3146,1.3179,1.321,1.3221,1.3263,1.3287,1.3324,1.3359,1.3381,1.3422,1.3474,1.3498,1.3514,1.3534,1.3528,1.3527,1.3523,1.3516,1.3585,1.3521,1.3521,1.3521,1.3522,1.3522,0,1.2973,1.3009,1.3035,1.3083,1.3105,1.3146,1.3186,1.32,1.322,1.3258,1.3283,1.3312,1.3338,1.3387,1.3416,1.342,1.3438,1.3425,1.3424,1.3429,1.3497,1.3497,1.341,1.341,1.341,1.341,1.341,1.341,1.2929,1.2941,1.2976,1.3005,1.304,1.3065,1.3084,1.3113,1.3144,1.3175,1.3198,1.3232,1.3273,1.3307,1.3332,1.3346,1.3352,1.3333,1.3351,1.3414,1.3424,1.3434,1.3434,1.3335,1.3334,1.3282,1.3281,1.3281]},{"header":{"parameterUnit":"m.s-1","parameterCategory":1,"la1":30.2991,"la2":30.254,"lo1":-89.0895,"lo2":-89.0444,"dy":0.0017,"dx":0.0017,"nx":28,"ny":28,"refTime":"2024-02-16T03:00:00:Z","depth":0,"parameterNumber":3,"parameterNumberName":"V-component_of_WINDS"},"data":[0,0,0,0,0,0,0,0,0,0,0,0,0,0,0,0,0,0,0,0,0,0,0,0,0,0,0,0,0,0,0,0,0,0,0,0,0,0,0,0,0,0,0,0,0,0,0,0,0,0,0,0,0,0,0,0,0,0,-0.616,-0.6159,0,-0.6036,-0.6035,-0.6034,-0.5875,-0.5872,-0.587,-0.5867,-0.5742,-0.5742,-0.5741,0,0,0,0,0,0,0,0,0,0,0,0,0,-0.6261,-0.626,-0.616,-0.6158,-0.6157,-0.6037,-0.6035,-0.6033,-0.5875,-0.5872,-0.5869,-0.5866,-0.5743,-0.5742,-0.5741,0,0,0,0,0,0,0,0,0,0,0,0,0,-0.6185,-0.626,-0.616,-0.6063,-0.6054,-0.6037,-0.6035,-0.6033,-0.5876,-0.5872,-0.5868,-0.5865,-0.5743,-0.5742,-0.574,-0.5809,0,0,-0.5736,-0.5736,0,0,0,0,0,0,0,0,-0.619,-0.6182,-0.6079,-0.607,-0.6059,-0.5967,-0.6024,-0.5958,-0.5877,-0.5943,-0.5867,-0.5863,-0.582,-0.5812,-0.5798,-0.5803,-0.5798,-0.5736,-0.5735,-0.5735,-0.5734,0,0,0,0,0,0,0,-0.6195,-0.6186,-0.6111,-0.6078,-0.6066,-0.6027,-0.6012,-0.6011,-0.5905,-0.5937,-0.5925,-0.5913,-0.5814,-0.58,-0.5794,-0.5796,-0.5736,-0.5735,-0.5734,-0.5734,-0.5853,-0.5857,0,0,0,0,0,0,-0.6215,-0.6192,-0.6115,-0.6107,-0.6116,-0.6028,-0.6011,-0.6,-0.5905,-0.5886,-0.5916,-0.5906,-0.5804,-0.5795,-0.5789,-0.5863,-0.5735,-0.5733,-0.5733,-0.5849,-0.5854,-0.5858,0,0,0,0,0,0,-0.6218,-0.6209,-0.612,-0.6146,-0.6132,-0.6031,-0.602,-0.6,-0.5985,-0.5889,-0.5869,-0.5921,-0.58,-0.5791,-0.5805,-0.5857,-0.5733,-0.5732,-0.5844,-0.5851,-0.5856,-0.6014,0,0,0,0,0,0,-0.6221,-0.6211,-0.6236,-0.6148,-0.6131,-0.6139,-0.6023,-0.6,-0.5983,-0.5968,-0.5888,-0.5871,-0.5797,-0.5808,-0.5804,-0.5853,-0.573,-0.5839,-0.5847,-0.5854,-0.6004,-0.6025,-0.6043,0,0,0,0,0,-0.6225,-0.6286,-0.6238,-0.623,-0.616,-0.6142,-0.6132,-0.6045,-0.5988,-0.6012,-0.595,-0.5873,-0.5852,-0.5811,-0.5805,-0.5854,-0.5836,-0.5845,-0.5854,-0.5995,-0.6021,-0.6042,0,0,0,0,0,0,-0.6383,-0.6272,-0.6218,-0.6252,-0.6208,-0.6115,-0.6143,-0.6075,-0.6046,-0.6034,-0.5927,-0.591,-0.5939,-0.5897,-0.5854,-0.5916,-0.5832,-0.5841,-0.5942,-0.5966,-0.5985,-0.5994,-0.5729,0,0,0,0,0,-0.6421,-0.6416,-0.6319,-0.6358,-0.6339,-0.6246,-0.6234,-0.6171,-0.6121,-0.6101,-0.604,-0.5996,-0.5978,-0.5969,-0.5948,-0.5997,-0.5978,-0.6028,-0.6047,-0.6064,-0.6072,-0.6096,-0.6117,-0.5888,-0.5888,-0.5888,0,0,-0.6501,-0.644,-0.6443,-0.6388,-0.6346,-0.6344,-0.623,-0.6232,-0.6229,-0.6102,-0.6112,-0.6066,-0.6009,-0.6041,-0.6052,-0.6008,-0.6131,-0.6075,-0.6089,-0.6088,-0.6108,-0.6129,-0.6149,-0.5894,-0.5893,-0.5892,0,0,-0.6645,-0.6598,-0.6625,-0.6586,-0.6524,-0.6461,-0.6468,-0.6386,-0.6351,-0.6359,-0.6264,-0.6259,-0.6232,-0.6195,-0.6173,-0.6305,-0.6233,-0.6301,-0.6403,-0.6427,-0.6445,-0.6461,-0.6509,-0.6527,-0.631,-0.631,-0.631,0,-0.6752,-0.6743,-0.6648,-0.6656,-0.6635,-0.652,-0.6547,-0.6514,-0.6449,-0.6438,-0.6388,-0.6352,-0.6305,-0.6328,-0.636,-0.6346,-0.6351,-0.631,-0.645,-0.6465,-0.6478,-0.6522,-0.6541,-0.6319,-0.6318,-0.6317,-0.6316,0,-0.6878,-0.6874,-0.6904,-0.6844,-0.6826,-0.6844,-0.6753,-0.6747,-0.6686,-0.6629,-0.664,-0.6579,-0.6545,-0.6545,-0.6485,-0.656,-0.6534,-0.6469,-0.6383,-0.651,-0.655,-0.6566,-0.6331,-0.6328,-0.6325,-0.6323,0,0,-0.7118,-0.7005,-0.7018,-0.699,-0.6913,-0.6908,-0.6922,-0.6887,-0.6885,-0.6844,-0.6853,-0.6833,-0.6772,-0.6748,-0.6682,-0.6704,-0.6813,-0.6636,-0.6633,-0.6672,-0.6893,-0.6944,-0.6965,-0.6765,-0.6768,-0.677,-0.6898,0,-0.7248,-0.7264,-0.7179,-0.7217,-0.7213,-0.7103,-0.7115,-0.707,-0.7017,-0.7006,-0.6948,-0.6936,-0.6856,-0.6841,-0.6857,-0.6797,-0.6856,-0.6786,-0.6774,-0.6774,-0.6792,-0.6985,-0.7038,-0.7162,-0.6913,-0.6916,-0.6918,0,-0.7402,-0.737,-0.7408,-0.733,-0.7325,-0.7337,-0.7299,-0.729,-0.7237,-0.7197,-0.717,-0.7095,-0.7103,-0.7021,-0.7032,-0.6986,-0.6976,-0.6945,-0.6948,-0.6944,-0.6855,-0.6988,-0.7199,-0.7219,-0.6941,-0.6939,-0.6938,0,-0.7574,-0.754,-0.7559,-0.7538,-0.7447,-0.7459,-0.7422,-0.7365,-0.735,-0.7317,-0.7306,-0.7276,-0.7259,-0.7237,-0.7156,-0.7104,-0.7177,-0.7088,-0.7146,-0.7148,-0.7167,-0.7167,-0.7381,-0.7159,-0.7159,-0.7158,-0.7158,0,-0.7729,-0.7757,-0.7635,-0.7647,-0.7675,-0.7578,-0.7609,-0.7561,-0.7512,-0.7513,-0.7416,-0.7419,-0.7312,-0.7303,-0.724,-0.7259,-0.7252,-0.7221,-0.7204,-0.723,-0.7235,-0.7223,-0.7213,-0.7163,-0.7162,-0.7161,-0.716,0,-0.7927,-0.7846,-0.7859,-0.7773,-0.7752,-0.7777,-0.7703,-0.771,-0.7652,-0.7655,-0.765,-0.7558,-0.7543,-0.746,-0.7426,-0.7384,-0.7426,-0.7391,-0.7445,-0.7433,-0.7497,-0.7493,-0.7711,-0.7736,-0.7498,-0.7501,-0.7503,0,-0.8031,-0.805,-0.7966,-0.7959,-0.7927,-0.7918,-0.7902,-0.7808,-0.7796,-0.7737,-0.7753,-0.773,-0.7707,-0.7688,-0.7619,-0.7593,-0.7558,-0.7636,-0.7553,-0.758,-0.7561,-0.7561,-0.7563,-0.7655,-0.7658,-0.766,-0.7662,0,-0.8226,-0.8185,-0.8166,-0.8134,-0.8118,-0.8088,-0.8052,-0.8053,-0.7948,-0.794,-0.7923,-0.7905,-0.7871,-0.785,-0.7812,-0.7774,-0.7702,-0.7689,-0.7701,-0.7729,-0.7759,-0.7745,-0.7494,-0.7684,-0.7682,-0.7681,-0.7679,-0.7678,-0.838,-0.8392,-0.8335,-0.8318,-0.8281,-0.825,-0.8254,-0.8196,-0.818,-0.8145,-0.809,-0.8082,-0.8029,-0.797,-0.7939,-0.7932,-0.789,-0.7907,-0.7912,-0.7918,-0.7932,-0.776,-0.7924,-0.7923,-0.7923,-0.7922,-0.7922,0,-0.8571,-0.8529,-0.8514,-0.8467,-0.8454,-0.8385,-0.8343,-0.8336,-0.833,-0.8287,-0.8266,-0.8248,-0.8228,-0.8158,-0.813,-0.8138,-0.8105,-0.8135,-0.8134,-0.8126,-0.797,-0.7963,-0.8162,-0.8162,-0.8162,-0.8162,-0.8162,-0.8162,-0.8668,-0.8686,-0.8639,-0.8638,-0.8595,-0.8586,-0.8568,-0.8539,-0.8504,-0.8489,-0.8471,-0.8425,-0.8372,-0.834,-0.8318,-0.8298,-0.8293,-0.8335,-0.8305,-0.816,-0.8137,-0.8115,-0.8108,-0.8334,-0.8335,-0.8461,-0.8462,-0.8463]}]]